Погода в Белореченске

Россия / Кировская область     58°46′21″N   52°17′37″E
темп.,
°C
ветер,
м/с
пор.,
м/с
влажн.,
%
обл.,
%
осадки,
мм/ч
давл.,
гПа
погр.,
м
17 апреля, сб
сб1700:000св11800 0.0 103010
03:000с11795 0.0 103110
06:00+2ссз24735 0.0 1030120
09:00+7ссз24545 0.0 10301116
12:00+9ссз24485 0.0 10281447
15:00+10ссз34475 0.0 10271559
18:00+7зсз26685 0.0 1026129
21:00+3зсз28815 0.0 1025166
18 апреля, вс
вс1800:00+2сз310852 0.0 1024249
03:00+1сз312873 0.0 1024351
06:00+2ссв5985100 0.0 1026821
09:00+2св57450 0.0 10291098
12:00+4св57385 0.0 10301637
15:00+4всв573779 0.0 10311947
18:00+3всв48475 0.0 1032784
21:000св310613 0.0 1034409
19 апреля, пн
пн1900:00−1всв39660 0.0 1035355
03:00−2всв38670 0.0 1037351
06:00−1всв36590 0.0 1037446
09:00+2всв34370 0.0 10381323
12:00+4всв34260 0.0 10371524
15:00+5всв34280 0.0 10361539
18:00+2всв24450 0.0 103672
21:00−1в23590 0.0 103759
20 апреля, вт
вт2000:00−2вюв22590 0.0 103822
03:00−2вюв11580 0.0 103810
06:00+1вюв11472 0.0 1038153
09:00+5ююв11310 0.0 1038863
12:00+8ю11280 0.0 10371235
15:00+9вюв11270 0.0 10351177
18:00+6ююв11400 0.0 103410
21:00+2ююв11540 0.0 103410
21 апреля, ср
ср2100:00+1ююв22570 0.0 103515
03:000юв22625 0.0 103438
06:00+3ююв275428 0.0 1034222
09:00+8ююв4734100 0.0 1032873
12:00+11ююв583092 0.0 10301205
15:00+12ююв593284 0.0 10281300
18:00+9ююв51140100 0.0 1028869
21:00+6ююв51547100 0.0 1028715